[[{"header":{"parameterUnit":"m.s-1","parameterCategory":1,"la1":30.2991,"la2":30.254,"lo1":-89.0895,"lo2":-89.0444,"dy":0.0017,"dx":0.0017,"nx":28,"ny":28,"refTime":"2024-12-25T03:00:00:Z","depth":0,"parameterNumber":2,"parameterNumberName":"U-component_of_WINDS"},"data":[0,0,0,0,0,0,0,0,0,0,0,0,0,0,0,0,0,0,0,0,0,0,0,0,0,0,0,0,0,0,0,0,0,0,0,0,0,0,0,0,0,0,0,0,0,0,0,0,0,0,0,0,0,0,0,0,0,0,-7.2034,-7.2036,0,-7.2174,-7.2175,-7.2177,-7.2116,-7.2113,-7.2109,-7.2106,-7.2245,-7.2252,-7.2259,0,0,0,0,0,0,0,0,0,0,0,0,0,-7.1713,-7.1719,-7.2034,-7.2036,-7.2037,-7.2174,-7.2175,-7.2177,-7.2117,-7.2112,-7.2108,-7.2104,-7.2243,-7.2251,-7.226,0,0,0,0,0,0,0,0,0,0,0,0,0,-7.1852,-7.1721,-7.2034,-7.2024,-7.2024,-7.2173,-7.2176,-7.2178,-7.2117,-7.2112,-7.2107,-7.2102,-7.224,-7.225,-7.2261,-7.2427,0,0,-7.2292,-7.2297,0,0,0,0,0,0,0,0,-7.1845,-7.1864,-7.2023,-7.2025,-7.2025,-7.2122,-7.2113,-7.2261,-7.2119,-7.2082,-7.2106,-7.21,-7.2208,-7.2221,-7.2258,-7.2433,-7.2439,-7.2293,-7.2299,-7.2304,-7.2307,0,0,0,0,0,0,0,-7.1835,-7.1858,-7.2089,-7.2026,-7.2027,-7.2012,-7.2026,-7.2141,-7.2172,-7.2085,-7.2081,-7.2098,-7.2208,-7.2248,-7.2261,-7.2441,-7.2293,-7.2302,-7.2308,-7.2312,-7.276,-7.2766,0,0,0,0,0,0,-7.1826,-7.185,-7.2085,-7.2093,-7.1921,-7.2022,-7.2037,-7.2096,-7.2171,-7.2177,-7.2102,-7.2095,-7.2233,-7.2249,-7.2266,-7.2464,-7.2304,-7.2313,-7.2319,-7.2755,-7.2762,-7.2768,0,0,0,0,0,0,-7.1819,-7.1847,-7.2079,-7.1971,-7.1999,-7.2033,-7.2099,-7.2102,-7.2142,-7.2184,-7.2189,-7.2138,-7.223,-7.2251,-7.2388,-7.2468,-7.2318,-7.2327,-7.2748,-7.2757,-7.2765,-7.2862,0,0,0,0,0,0,-7.181,-7.1845,-7.1908,-7.1973,-7.2005,-7.2199,-7.2104,-7.2108,-7.2161,-7.2152,-7.2219,-7.2225,-7.2228,-7.2372,-7.2398,-7.2479,-7.2336,-7.2741,-7.2752,-7.2762,-7.2852,-7.2873,-7.2891,0,0,0,0,0,-7.1799,-7.1929,-7.1912,-7.194,-7.2085,-7.2203,-7.2222,-7.2223,-7.2167,-7.2231,-7.2259,-7.2223,-7.2457,-7.2387,-7.2415,-7.2501,-7.2736,-7.2749,-7.2761,-7.2843,-7.2869,-7.2891,0,0,0,0,0,0,-7.187,-7.1937,-7.1919,-7.2074,-7.2134,-7.2193,-7.2272,-7.2251,-7.2326,-7.2315,-7.2313,-7.2328,-7.2469,-7.2499,-7.2421,-7.2666,-7.2587,-7.2606,-7.264,-7.2665,-7.2684,-7.2672,-7.2344,0,0,0,0,0,-7.1905,-7.1997,-7.205,-7.2182,-7.2213,-7.2239,-7.229,-7.2287,-7.2348,-7.2372,-7.2409,-7.2469,-7.2556,-7.2613,-7.2696,-7.2858,-7.2871,-7.2932,-7.2951,-7.2967,-7.2982,-7.307,-7.3097,-7.281,-7.281,-7.281,0,0,-7.1976,-7.2024,-7.2081,-7.2197,-7.2243,-7.2337,-7.226,-7.2362,-7.2431,-7.2387,-7.2517,-7.2548,-7.2615,-7.2766,-7.2833,-7.2795,-7.3066,-7.2984,-7.2996,-7.3002,-7.3086,-7.3113,-7.3137,-7.2819,-7.2817,-7.2816,0,0,-7.2151,-7.2198,-7.2313,-7.2362,-7.2434,-7.2451,-7.2479,-7.2543,-7.2562,-7.2694,-7.2663,-7.2746,-7.2896,-7.2945,-7.299,-7.3191,-7.316,-7.3218,-7.3318,-7.3404,-7.3427,-7.3447,-7.3516,-7.3541,-7.3234,-7.3234,-7.3234,0,-7.2229,-7.237,-7.2374,-7.248,-7.2532,-7.2501,-7.2616,-7.2663,-7.2758,-7.2794,-7.2751,-7.294,-7.2983,-7.3144,-7.3194,-7.3232,-7.3263,-7.3207,-7.3424,-7.3444,-7.3462,-7.3528,-7.3555,-7.3241,-7.324,-7.3239,-7.3239,0,-7.2462,-7.2561,-7.2645,-7.2739,-7.2801,-7.2911,-7.2932,-7.2995,-7.2988,-7.301,-7.3145,-7.3197,-7.329,-7.3329,-7.3322,-7.349,-7.3464,-7.3423,-7.3343,-7.3496,-7.3558,-7.3583,-7.3249,-7.3247,-7.3245,-7.3244,0,0,-7.2679,-7.2779,-7.2809,-7.2852,-7.2932,-7.3008,-7.3118,-7.3211,-7.3264,-7.3332,-7.3423,-7.3554,-7.3517,-7.3568,-7.3568,-7.3644,-7.3798,-7.3594,-7.3595,-7.3627,-7.3984,-7.4011,-7.404,-7.3781,-7.3786,-7.379,-7.3978,0,-7.2858,-7.3051,-7.3061,-7.3236,-7.3327,-7.3302,-7.3398,-7.3457,-7.3482,-7.3563,-7.359,-7.3681,-7.3628,-7.3658,-7.3733,-7.3763,-7.3869,-7.3751,-7.3863,-7.3867,-7.3842,-7.4073,-7.4101,-7.4275,-7.4002,-7.4006,-7.4009,0,-7.309,-7.3168,-7.3353,-7.3422,-7.3461,-7.3547,-7.3633,-7.3712,-7.378,-7.3793,-7.3853,-7.3842,-7.3955,-7.3877,-7.4031,-7.3951,-7.3999,-7.4021,-7.4028,-7.4034,-7.3943,-7.4081,-7.433,-7.4355,-7.4048,-7.4045,-7.4042,0,-7.3226,-7.3378,-7.3508,-7.3547,-7.3631,-7.3692,-7.373,-7.3793,-7.3849,-7.3926,-7.3962,-7.4051,-7.4098,-7.4167,-7.4181,-7.4123,-7.4336,-7.4258,-7.4348,-7.4347,-7.4388,-7.4384,-7.4644,-7.4428,-7.4427,-7.4427,-7.4426,0,-7.3422,-7.3535,-7.3571,-7.365,-7.3777,-7.3789,-7.3914,-7.3947,-7.4005,-7.409,-7.4076,-7.4156,-7.4172,-7.4257,-7.4269,-7.4395,-7.4417,-7.4429,-7.443,-7.4428,-7.4426,-7.4454,-7.4441,-7.4434,-7.4432,-7.4431,-7.443,0,-7.3592,-7.3621,-7.376,-7.3832,-7.3852,-7.3942,-7.4002,-7.4079,-7.4105,-7.4213,-7.4239,-7.4279,-7.4378,-7.4401,-7.4518,-7.4527,-7.4674,-7.4666,-7.4651,-7.4649,-7.4735,-7.4725,-7.5018,-7.5057,-7.482,-7.4822,-7.4824,0,-7.3711,-7.3798,-7.388,-7.3937,-7.3979,-7.4071,-7.4129,-7.4146,-7.4207,-7.4293,-7.4359,-7.4457,-7.4535,-7.4694,-7.4733,-7.4823,-7.4814,-7.4911,-7.4826,-7.4822,-7.4811,-7.4803,-7.4811,-7.4924,-7.4927,-7.4929,-7.4931,0,-7.392,-7.3931,-7.4016,-7.4108,-7.4178,-7.425,-7.4319,-7.4367,-7.4394,-7.4463,-7.4565,-7.4626,-7.4748,-7.4844,-7.4936,-7.4974,-7.4957,-7.4959,-7.4983,-7.4978,-7.4964,-7.4969,-7.469,-7.495,-7.4948,-7.4946,-7.4945,-7.4945,-7.4065,-7.4142,-7.4212,-7.4307,-7.4363,-7.4429,-7.4504,-7.4542,-7.4627,-7.4728,-7.4734,-7.4844,-7.4913,-7.5035,-7.5079,-7.5166,-7.5135,-7.5172,-7.518,-7.5188,-7.5194,-7.4956,-7.5183,-7.5183,-7.5182,-7.5182,-7.5181,0,-7.4269,-7.4315,-7.4404,-7.4502,-7.4578,-7.456,-7.4637,-7.4701,-7.4798,-7.4865,-7.4944,-7.5062,-7.5157,-7.5206,-7.5301,-7.536,-7.5355,-7.5384,-7.5377,-7.5386,-7.5217,-7.5184,-7.5387,-7.5387,-7.5387,-7.5387,-7.5387,-7.5387,-7.4384,-7.4512,-7.4533,-7.4688,-7.4733,-7.4842,-7.4887,-7.4948,-7.5002,-7.5135,-7.5214,-7.5247,-7.5307,-7.5407,-7.5493,-7.5505,-7.5539,-7.5571,-7.5579,-7.5419,-7.5397,-7.5377,-7.5346,-7.558,-7.558,-7.574,-7.5741,-7.5742]},{"header":{"parameterUnit":"m.s-1","parameterCategory":1,"la1":30.2991,"la2":30.254,"lo1":-89.0895,"lo2":-89.0444,"dy":0.0017,"dx":0.0017,"nx":28,"ny":28,"refTime":"2024-12-25T03:00:00:Z","depth":0,"parameterNumber":3,"parameterNumberName":"V-component_of_WINDS"},"data":[0,0,0,0,0,0,0,0,0,0,0,0,0,0,0,0,0,0,0,0,0,0,0,0,0,0,0,0,0,0,0,0,0,0,0,0,0,0,0,0,0,0,0,0,0,0,0,0,0,0,0,0,0,0,0,0,0,0,0.5768,0.5768,0,0.5788,0.5788,0.5788,0.5797,0.5797,0.5797,0.5797,0.5817,0.5817,0.5818,0,0,0,0,0,0,0,0,0,0,0,0,0,0.574,0.574,0.5768,0.5768,0.5768,0.5788,0.5788,0.5788,0.5797,0.5797,0.5797,0.5797,0.5816,0.5817,0.5818,0,0,0,0,0,0,0,0,0,0,0,0,0,0.5755,0.574,0.5768,0.5775,0.5776,0.5787,0.5788,0.5788,0.5797,0.5797,0.5797,0.5797,0.5816,0.5817,0.5818,0.5823,0,0,0.582,0.582,0,0,0,0,0,0,0,0,0.5754,0.5756,0.5774,0.5775,0.5776,0.579,0.5785,0.58,0.5797,0.5789,0.5797,0.5797,0.5808,0.5809,0.5813,0.5824,0.5824,0.582,0.5821,0.5821,0.5821,0,0,0,0,0,0,0,0.5753,0.5755,0.5776,0.5774,0.5775,0.5778,0.578,0.5788,0.5798,0.579,0.5791,0.5793,0.5808,0.5812,0.5813,0.5825,0.582,0.5821,0.5821,0.5822,0.5844,0.5844,0,0,0,0,0,0,0.575,0.5754,0.5775,0.5776,0.5765,0.5779,0.5781,0.5785,0.5798,0.58,0.5793,0.5793,0.5811,0.5812,0.5814,0.5823,0.5821,0.5822,0.5822,0.5844,0.5844,0.5844,0,0,0,0,0,0,0.575,0.5752,0.5774,0.5765,0.5768,0.5779,0.5784,0.5786,0.579,0.58,0.5802,0.5795,0.5811,0.5813,0.5821,0.5824,0.5822,0.5823,0.5844,0.5844,0.5844,0.5839,0,0,0,0,0,0,0.5749,0.5752,0.5753,0.5765,0.5769,0.5781,0.5784,0.5786,0.5791,0.5792,0.5803,0.5805,0.5811,0.582,0.5822,0.5825,0.5823,0.5843,0.5844,0.5844,0.5839,0.5839,0.5839,0,0,0,0,0,0.5748,0.575,0.5753,0.5756,0.5771,0.5781,0.5783,0.579,0.5791,0.5793,0.5801,0.5804,0.5823,0.5821,0.5823,0.5826,0.5843,0.5844,0.5844,0.5839,0.5839,0.5839,0,0,0,0,0,0,0.5737,0.5752,0.5755,0.5762,0.577,0.5782,0.5785,0.5789,0.5797,0.5797,0.5806,0.5809,0.5817,0.5822,0.5819,0.5833,0.5834,0.5834,0.5829,0.5829,0.5829,0.5828,0.5824,0,0,0,0,0,0.5736,0.5742,0.5755,0.5759,0.5764,0.5774,0.5778,0.5784,0.5792,0.5796,0.5803,0.5812,0.582,0.5825,0.5833,0.584,0.5844,0.5843,0.5843,0.5843,0.5844,0.5851,0.5852,0.5845,0.5845,0.5845,0,0,0.5732,0.5741,0.5745,0.5758,0.5765,0.5772,0.5776,0.5783,0.5789,0.5796,0.5806,0.5812,0.5822,0.5831,0.5835,0.5835,0.5847,0.5844,0.5844,0.5844,0.5852,0.5852,0.5853,0.5845,0.5845,0.5845,0,0,0.5731,0.5737,0.5743,0.5751,0.5762,0.5769,0.5771,0.5783,0.5788,0.5797,0.5804,0.5811,0.5824,0.5832,0.5837,0.5842,0.5846,0.5844,0.5844,0.5851,0.5852,0.5852,0.5856,0.5857,0.5845,0.5845,0.5845,0,0.5725,0.5736,0.5745,0.5753,0.5759,0.5768,0.5774,0.5781,0.5794,0.5799,0.5799,0.5818,0.5825,0.5837,0.5839,0.5842,0.5845,0.5843,0.5851,0.5852,0.5852,0.5856,0.5857,0.5845,0.5845,0.5845,0.5845,0,0.573,0.5738,0.5741,0.5755,0.5762,0.5769,0.578,0.5786,0.5791,0.5799,0.581,0.5819,0.583,0.5833,0.5838,0.5847,0.5847,0.5849,0.585,0.5853,0.5856,0.5857,0.5844,0.5844,0.5844,0.5845,0,0,0.572,0.5741,0.5742,0.575,0.5764,0.5771,0.5779,0.5791,0.5797,0.5806,0.5815,0.5827,0.583,0.5837,0.5843,0.5848,0.5854,0.585,0.5851,0.5852,0.5867,0.5867,0.5868,0.5857,0.5858,0.5858,0.5867,0,0.5721,0.5736,0.5746,0.5758,0.5767,0.5777,0.5785,0.5795,0.5803,0.5812,0.5821,0.583,0.5832,0.5837,0.5843,0.5852,0.5858,0.5852,0.5866,0.5867,0.5864,0.5869,0.5868,0.5876,0.5868,0.5868,0.5869,0,0.5723,0.5735,0.5748,0.5764,0.5768,0.5775,0.5789,0.5797,0.5809,0.5815,0.5824,0.5831,0.5841,0.5842,0.5857,0.5853,0.586,0.5866,0.5866,0.5868,0.5868,0.5873,0.5878,0.588,0.5871,0.587,0.587,0,0.5717,0.5735,0.5746,0.5752,0.5771,0.5776,0.5784,0.5797,0.5805,0.5816,0.5822,0.5834,0.5841,0.5851,0.5862,0.586,0.5877,0.5877,0.5883,0.5883,0.5886,0.5886,0.5894,0.5889,0.5889,0.5889,0.5889,0,0.5718,0.5726,0.5744,0.5751,0.5761,0.5773,0.5783,0.5792,0.5804,0.5814,0.5822,0.5831,0.5844,0.5855,0.5863,0.5876,0.5879,0.5884,0.5887,0.5884,0.5884,0.5889,0.5889,0.5889,0.5889,0.5889,0.5889,0,0.5712,0.5724,0.5737,0.5755,0.576,0.5767,0.5783,0.579,0.58,0.5812,0.5816,0.583,0.5844,0.5856,0.5873,0.5879,0.5893,0.5895,0.5889,0.589,0.5896,0.5896,0.5908,0.5912,0.5903,0.5903,0.5903,0,0.5711,0.5718,0.5738,0.5746,0.5754,0.5766,0.5774,0.5787,0.5796,0.5813,0.5819,0.5833,0.5846,0.5867,0.588,0.5894,0.5897,0.5901,0.5899,0.5897,0.5899,0.5899,0.5901,0.5901,0.5901,0.5901,0.5901,0,0.571,0.5717,0.5729,0.5744,0.5755,0.5767,0.578,0.5785,0.5801,0.581,0.5825,0.5835,0.5854,0.5869,0.5885,0.5894,0.5901,0.5901,0.5904,0.5902,0.5899,0.5902,0.589,0.5901,0.5901,0.5901,0.5901,0.5901,0.5708,0.5716,0.5732,0.5746,0.5758,0.577,0.5779,0.5791,0.5803,0.5821,0.5828,0.5843,0.5859,0.5881,0.5891,0.5904,0.5905,0.5907,0.5908,0.5909,0.591,0.5896,0.5906,0.5906,0.5906,0.5906,0.5906,0,0.5709,0.5721,0.5734,0.5752,0.5764,0.577,0.5785,0.5795,0.5809,0.5823,0.5836,0.5854,0.5869,0.5884,0.5901,0.5909,0.5912,0.5913,0.5912,0.5915,0.5907,0.5904,0.591,0.591,0.591,0.591,0.591,0.591,0.5711,0.5725,0.5734,0.5755,0.5767,0.5783,0.5792,0.5804,0.5816,0.5836,0.5849,0.586,0.5875,0.5893,0.5908,0.5912,0.5918,0.5918,0.5923,0.5916,0.5915,0.5915,0.5912,0.5919,0.5919,0.593,0.593,0.5931]}]]